Flag for China Weather past 2 weeks in Dalian, Liaoning, China

Now
70 °F

Sunny.


Feels Like: 70 °F
Forecast: 67 / 76 °F
Wind: 15 mph from North

Location: Dalian Airport

Current Time: Jul 3, 2015 at 7:25:05 AM

Latest Report: Jul 3, 2015 at 7:00 AM


Visibility: 10 mi

Pressure: 29.74 "Hg

Humidity: 64%

Dew point: 57 °F

Location of DalianLocation

Historic Weather in Dalian — Graph

°F

Dalian temperature yesterday

Maximum temperature yesterday: 82 °F (at 12:00 PM)
Minimum temperature yesterday: 63 °F (at 3:30 AM)
Average temperature yesterday: 74 °F

Past Weeks' High & Low Weather Summary

 TemperatureHumidityPressure
High86 °F (Jun 27, 11:30 AM)100% (Jun 30, 6:00 AM)29.86 "Hg (Jun 30, 6:00 AM)
Low63 °F (Jun 30, 10:30 PM)30% (Jul 1, 3:00 PM)29.39 "Hg (Jul 1, 2:30 AM)
Average73 °F70%29.69 "Hg
* Reported Jun 18 6:00 AM — Jul 3 6:30 AM, Dalian, Weather by CustomWeather, © 2015

Note: Actual official high and low records may vary slightly from our data, if they occured in-between our weather recording intervals... More about our weather records

Advertising

Dalian weather history for previous 24 hours

 ConditionsComfort  
Time TempWeatherWind HumidityBarometerVisibility
6:30 AM
Fri, Jul 3
70 °FSunny.10 mph60%29.74 "Hg10 mi
6:00 AM70 °FPassing clouds.8 mph64%29.74 "HgN/A
5:30 AM68 °FPassing clouds.10 mph64%29.71 "HgN/A
5:00 AM68 °FPassing clouds.8 mph73%29.71 "HgN/A
4:30 AM68 °FPassing clouds.8 mph69%29.71 "HgN/A
4:00 AM68 °FPassing clouds.8 mph64%29.71 "HgN/A
3:30 AM68 °FPassing clouds.8 mph60%29.71 "HgN/A
3:00 AM68 °FPassing clouds.8 mph64%29.71 "HgN/A
2:30 AM68 °FPassing clouds.8 mph69%29.71 "HgN/A
2:00 AM68 °FClear.10 mph64%29.71 "Hg10 mi
1:30 AM68 °FClear.10 mph64%29.68 "Hg10 mi
1:00 AM70 °FPassing clouds.10 mph60%29.68 "HgN/A
12:30 AM70 °FPassing clouds.6 mph64%29.68 "HgN/A
12:00 AM72 °FPassing clouds.8 mph57%29.71 "HgN/A
11:30 PM
Thu, Jul 2
72 °FPassing clouds.10 mph61%29.71 "HgN/A
11:00 PM72 °FPassing clouds.10 mph61%29.68 "HgN/A
10:30 PM72 °FClear.13 mph61%29.68 "Hg10 mi
10:00 PM72 °FPassing clouds.13 mph73%29.71 "HgN/A
9:30 PM72 °FPassing clouds.8 mph53%29.68 "HgN/A
9:00 PM72 °FPassing clouds.6 mph44%29.65 "HgN/A
8:30 PM72 °FPassing clouds.6 mph41%29.65 "HgN/A
8:00 PM72 °FPassing clouds.8 mph41%29.62 "HgN/A
7:30 PM73 °FPassing clouds.8 mph38%29.62 "HgN/A
7:00 PM75 °FPassing clouds.8 mph34%29.62 "HgN/A
6:30 PM77 °FPassing clouds.10 mph32%29.59 "HgN/A
6:00 PM79 °FPassing clouds.10 mph34%29.59 "HgN/A
5:30 PM79 °FPassing clouds.10 mph32%29.59 "HgN/A
5:00 PM81 °FPassing clouds.10 mph32%29.59 "HgN/A
4:30 PM81 °FPassing clouds.13 mph30%29.59 "HgN/A
4:00 PM81 °FPassing clouds.13 mph32%29.59 "HgN/A
3:30 PM81 °FPassing clouds.13 mph32%29.59 "HgN/A
3:00 PM81 °FPassing clouds.13 mph32%29.59 "HgN/A
2:30 PM82 °FPassing clouds.13 mph32%29.59 "HgN/A
2:00 PM81 °FPassing clouds.13 mph30%29.59 "HgN/A
1:30 PM82 °FSunny.10 mph32%29.56 "Hg10 mi
1:00 PM82 °FPassing clouds.10 mph32%29.56 "HgN/A
12:00 PM82 °FPassing clouds.8 mph35%29.59 "HgN/A
11:30 AM81 °FPassing clouds.8 mph37%29.56 "HgN/A
11:00 AM81 °FPassing clouds.8 mph39%29.59 "HgN/A
10:30 AM79 °FPassing clouds.13 mph42%29.59 "HgN/A
10:00 AM79 °FPassing clouds.8 mph42%29.59 "HgN/A
9:30 AM77 °FPassing clouds.13 mph44%29.56 "HgN/A
9:00 AM77 °FPassing clouds.10 mph44%29.56 "HgN/A
8:30 AM75 °FPassing clouds.10 mph50%29.56 "HgN/A
8:00 AM75 °FPassing clouds.8 mph54%29.56 "HgN/A
7:30 AM75 °FPassing clouds.6 mph57%29.56 "HgN/A
7:00 AM72 °FSunny.8 mph69%29.56 "Hg10 mi
Weather by CustomWeather, © 2015

See weather overviewHow to use our weather pages